This is the latest recevied weather packets stored in our database for station/object SV8FES. If no packets are shown the sender has not sent any weather packets the latest 1 day(s).
| Time | Temp. | Humidity | Pressure | Rain* | Wind** | Luminosity | Snow |
|---|---|---|---|---|---|---|---|
| 1778069588 | 22.78° C | 52% | 1016.6 hPa | 0 mm | - | 824 W/m² | - |
| 1778069524 | 22.78° C | 52% | 1016.7 hPa | 0 mm | - | 824 W/m² | - |
| 1778069045 | 22.78° C | 48% | 1016.7 hPa | 0 mm | - | 840 W/m² | - |
| 1778068984 | 22.78° C | 49% | 1016.7 hPa | 0 mm | - | 844 W/m² | - |
| 1778068744 | 22.78° C | 49% | 1016.7 hPa | 0 mm | - | 849 W/m² | - |
| 1778068384 | 22.78° C | 50% | 1016.8 hPa | 0 mm | - | 858 W/m² | - |
| 1778068145 | 22.78° C | 51% | 1016.8 hPa | 0 mm | - | 861 W/m² | - |
| 1778068024 | 22.78° C | 50% | 1016.9 hPa | 0 mm | - | 863 W/m² | - |
| 1778067964 | 22.78° C | 50% | 1016.9 hPa | 0 mm | - | 865 W/m² | - |
| 1778067906 | 22.78° C | 51% | 1016.8 hPa | 0 mm | - | 865 W/m² | - |
| 1778067845 | 22.78° C | 51% | 1016.9 hPa | 0 mm | - | 867 W/m² | - |
| 1778067665 | 22.22° C | 51% | 1016.8 hPa | 0 mm | - | 870 W/m² | - |
| 1778067483 | 22.22° C | 53% | 1016.8 hPa | 0 mm | - | 877 W/m² | - |
| 1778067366 | 22.22° C | 53% | 1016.8 hPa | 0 mm | - | 875 W/m² | - |
| 1778067258 | 22.22° C | 52% | 1016.9 hPa | 0 mm | - | 881 W/m² | - |
| 1778067123 | 22.22° C | 53% | 1016.9 hPa | 0 mm | - | 881 W/m² | - |
| 1778067063 | 22.22° C | 53% | 1016.9 hPa | 0 mm | - | 882 W/m² | - |
| 1778066946 | 22.22° C | 55% | 1016.9 hPa | 0 mm | - | 884 W/m² | - |
| 1778066584 | 21.67° C | 55% | 1016.9 hPa | 0 mm | - | 888 W/m² | - |
| 1778066104 | 22.22° C | 56% | 1016.8 hPa | 0 mm | - | 895 W/m² | - |
| 1778066044 | 22.22° C | 56% | 1016.9 hPa | 0 mm | - | 896 W/m² | - |
| 1778065984 | 22.22° C | 56% | 1016.9 hPa | 0 mm | - | 896 W/m² | - |
| 1778065682 | 22.22° C | 54% | 1016.8 hPa | 0 mm | - | 900 W/m² | - |
| 1778065624 | 22.22° C | 55% | 1016.8 hPa | 0 mm | - | 902 W/m² | - |
| 1778065565 | 22.22° C | 54% | 1016.8 hPa | 0 mm | - | 896 W/m² | - |
* Rain latest hour (hover to see other rain measurements)
** Current wind speed in m/s (hover to see current wind gust speed)